Location: Hamayl? Da??
(36.7028°N, 30.1716°E)
Time: 16:12:42
(UTC+00:00)

Cosmos 2221 - Pass Details

Date: 04 August 2024
Orbit: 580 x 600 km, 82.5° (Epoch: 11 September)

Event Time Altitude Azimuth Distance (km) Brightness Sun altitude
Rises 20:06:18 0° 355° (N) 2,855 6.9 -29.5°
Reaches altitude 10° 20:08:31 10° 357° (N) 1,951 5.8 -29.7°
Enters shadow 20:10:50 31° 4° (N) 1,066 4.1 -29.9°
